Theta_e
336 337 335 336 338 338 337 335 336 335 332 332 332 335 337 340 342 343 344 351 355 356 357 360 361 358 356 356 354 353 353 353 352 351 350 347 347 347 348 347 346 347 347
329 329 325 326 328 329 330 332 331 334 335 335 336 338 335 333 337 338 341 342 352 355 357 359 362 359 358 357 355 354 352 350 350 349 348 346 346 345 346 346 347 348 347
319 319 316 317 320 321 321 323 325 327 327 333 328 331 336 340 337 340 342 342 343 353 356 357 357 354 354 355 353 353 352 350 349 348 346 346 346 345 345 345 346 346 346
317 315 314 314 316 317 317 319 320 320 324 322 321 325 330 338 337 340 341 341 342 345 347 354 346 348 349 353 354 352 351 349 348 347 347 345 345 345 344 344 345 345 345
316 314 313 313 315 315 314 314 315 314 320 314 317 323 331 327 332 342 342 341 343 342 340 347 344 343 341 344 351 354 352 350 348 347 346 345 344 344 343 343 342 342 342
312 311 310 311 312 310 310 310 311 312 316 312 315 321 323 323 332 334 336 341 340 339 338 341 341 341 345 345 346 354 354 352 349 348 346 345 344 343 342 340 340 340 340
310 308 308 307 307 305 306 306 307 307 309 308 311 312 317 326 322 324 334 335 336 340 341 340 335 335 335 341 344 350 354 354 351 349 346 344 343 341 339 337 337 337 337
307 308 305 303 303 301 301 301 302 302 304 305 305 309 311 316 312 315 322 331 326 334 338 339 338 335 333 335 338 347 352 354 354 351 347 344 342 340 338 337 335 335 335
304 303 303 301 300 299 298 299 299 298 297 300 305 303 303 304 306 312 314 314 319 315 321 325 331 335 334 333 335 338 348 350 353 353 349 345 342 339 337 336 336 336 334
302 302 301 300 299 298 297 297 298 297 296 294 297 299 298 301 299 299 306 306 305 305 309 311 313 321 330 334 338 342 342 346 351 351 351 348 342 339 338 337 336 336 334
300 301 299 298 297 297 296 296 295 294 294 293 292 292 294 295 300 296 294 296 298 301 303 308 309 310 315 319 326 337 341 341 344 346 347 347 343 340 339 338 336 336 335
296 298 298 297 296 295 295 294 294 293 292 292 291 291 291 294 293 292 291 292 293 296 300 301 304 310 310 315 322 331 334 337 337 339 340 342 341 341 340 338 335 335 336
294 294 295 295 294 295 295 294 292 292 291 290 290 289 290 293 294 293 291 290 291 293 294 298 301 305 308 312 315 323 328 332 334 334 335 338 338 339 338 337 336 337 336
295 295 295 295 295 296 295 293 292 292 291 290 290 289 289 291 295 294 292 291 289 291 292 291 297 298 303 302 307 313 313 320 326 331 331 333 334 335 335 334 334 335 335
297 297 296 295 295 295 294 292 291 291 290 289 289 290 291 293 295 295 294 294 291 286 288 291 291 297 297 299 303 305 307 314 320 321 328 330 330 331 331 331 331 332 331
294 296 295 295 294 294 293 292 291 291 290 289 291 290 290 293 293 293 294 295 294 291 288 293 294 296 297 298 300 301 303 310 315 317 321 328 327 328 328 328 328 329 329
293 294 295 294 294 293 292 291 290 292 291 290 289 290 291 294 294 294 294 294 294 294 290 293 295 297 297 297 298 299 301 303 307 315 319 325 325 326 326 326 326 327 326
293 293 295 294 294 293 292 291 291 291 290 289 289 288 289 294 293 294 294 293 294 295 293 291 295 296 297 298 298 298 299 302 304 311 316 318 324 322 322 322 322 322 320
292 293 294 293 292 293 291 292 291 291 289 288 287 287 289 292 292 293 295 295 296 297 297 295 294 296 297 298 298 299 299 299 303 310 315 318 322 322 321 321 320 318 314
292 292 293 292 292 292 291 292 291 289 288 288 288 288 289 292 292 295 296 296 296 295 295 295 294 294 295 298 298 297 296 299 299 306 315 319 322 322 320 320 318 316 312
292 292 292 291 290 291 292 290 289 288 286 286 287 288 289 294 298 298 296 295 296 295 294 294 293 294 295 295 295 297 297 298 300 305 309 320 322 322 320 319 320 317 312
291 291 291 290 288 291 295 296 293 286 286 285 284 286 288 292 293 297 298 299 298 295 293 293 293 293 294 295 298 297 297 296 296 306 311 316 320 318 318 317 316 314 309
290 290 290 290 288 287 294 296 296 287 285 285 284 285 286 290 292 291 296 297 296 298 298 296 294 294 294 296 299 299 297 297 298 304 313 313 313 315 316 316 311 309 308
290 290 290 290 288 288 295 296 296 288 285 284 284 285 285 287 289 292 293 291 293 294 295 296 296 296 297 297 299 302 299 299 302 305 312 309 306 308 308 309 308 308 307
289 290 290 290 288 288 293 295 294 287 285 284 285 286 287 289 292 294 290 289 291 293 297 298 299 298 297 298 301 302 298 298 297 300 311 305 304 304 305 305 307 307 305
290 291 291 290 292 289 292 294 293 287 283 284 284 285 290 291 293 293 289 289 289 290 292 294 296 296 296 299 303 303 301 298 300 302 309 304 304 305 301 305 306 306 306
Wind_Speed
4 4 5 5 5 5 6 6 6 6 7 9 8 7 6 5 5 4 4 14 15 13 11 13 14 16 17 14 12 13 12 11 12 11 10 11 11 12 13 15 16 16 15
4 5 5 6 6 6 6 5 5 5 5 6 7 8 7 6 5 6 5 6 14 15 14 14 15 16 16 15 14 13 12 10 11 10 10 10 10 11 11 12 14 15 15
7 7 6 6 6 6 7 5 5 4 4 4 6 7 7 6 5 7 5 4 4 7 10 10 14 9 11 12 13 13 14 13 12 11 11 11 10 10 11 11 11 11 12
9 7 6 6 5 5 6 6 7 6 6 7 7 7 6 5 8 5 5 4 3 3 8 2 12 10 11 12 15 14 13 14 15 14 13 13 12 12 11 12 11 10 9
9 7 6 6 6 6 7 7 5 6 6 7 9 7 5 5 5 6 6 5 1 4 5 12 17 11 4 11 18 18 17 15 15 15 15 15 15 14 13 13 12 12 11
11 8 8 9 8 7 7 8 7 7 4 8 9 8 6 5 1 3 4 4 3 2 2 5 7 6 15 21 22 19 20 18 17 17 16 16 15 16 15 14 14 13 12
11 11 7 8 8 9 9 10 7 8 6 11 5 5 3 4 5 5 5 4 4 2 4 4 3 4 6 15 19 20 23 21 21 20 19 17 17 17 17 16 15 15 14
11 10 9 8 9 7 9 10 10 5 4 8 5 4 6 4 7 7 4 5 9 6 6 6 6 5 4 6 9 19 25 24 24 23 22 20 20 20 19 17 16 16 14
10 10 10 8 8 8 8 8 9 10 6 4 8 5 5 4 10 4 5 6 6 7 7 10 11 10 8 8 11 14 19 25 26 25 24 23 22 22 20 19 17 17 17
8 9 8 8 7 6 8 8 7 6 6 8 4 6 3 2 4 8 3 6 9 10 9 8 9 10 11 8 14 18 19 20 25 26 26 25 24 24 22 20 19 18 18
6 7 6 6 6 5 6 6 6 7 5 4 3 4 3 4 5 3 8 6 8 6 10 7 12 11 11 11 11 14 18 20 22 26 29 26 24 25 22 21 20 20 20
4 5 5 5 5 5 5 4 6 6 5 4 3 4 3 3 5 5 6 12 13 6 12 11 10 9 10 9 15 22 23 20 22 24 26 24 25 25 24 23 23 23 22
2 3 3 5 4 4 4 4 5 5 5 5 5 3 2 4 5 5 6 9 10 11 5 7 6 8 10 8 11 24 26 25 22 25 24 24 26 25 24 23 22 24 23
1 2 4 5 5 5 5 5 3 4 5 4 6 4 3 3 5 5 6 8 10 6 10 6 9 5 7 11 21 32 17 28 26 24 24 27 25 27 25 24 22 24 22
4 3 5 5 6 6 6 4 3 4 5 5 6 5 4 4 5 6 5 5 6 9 14 4 5 9 12 12 17 18 18 27 29 28 24 27 27 28 27 24 22 22 20
5 5 5 4 6 6 6 5 5 4 5 4 5 7 5 5 6 5 6 7 6 8 10 13 13 17 15 13 17 19 18 32 29 27 27 24 27 29 30 30 28 25 22
5 5 4 4 5 6 5 5 5 6 6 7 6 7 10 9 7 6 6 7 8 9 13 15 16 17 20 19 17 15 16 16 15 26 26 23 24 28 32 33 31 28 26
4 4 4 3 4 4 4 5 6 6 6 8 9 7 9 8 10 9 7 10 10 11 12 18 16 16 17 17 20 20 16 14 16 24 27 27 25 24 27 26 25 24 21
4 5 5 3 4 5 5 5 5 6 6 6 7 8 10 11 11 10 10 9 10 10 12 14 15 14 16 15 16 16 16 18 15 29 30 29 25 25 27 26 22 17 14
4 4 3 4 4 5 5 5 5 6 6 7 7 8 9 11 12 13 11 12 12 13 13 14 15 15 16 14 14 14 15 12 15 14 21 23 18 24 26 26 23 22 21
2 2 3 5 4 4 3 5 5 6 6 7 8 8 9 15 22 17 11 13 15 14 13 14 15 16 15 14 15 12 15 12 14 13 13 12 8 10 13 22 23 28 22
3 3 4 4 5 4 9 11 10 5 7 7 9 10 9 17 16 23 23 26 23 17 18 15 15 16 21 17 16 15 13 12 13 12 13 10 9 9 10 12 20 22 25
3 5 6 5 7 6 10 10 12 4 6 7 8 9 9 9 17 13 20 26 23 26 26 20 20 17 22 19 20 16 15 14 13 13 11 9 5 7 7 10 23 25 24
6 6 7 7 6 6 12 11 12 6 6 8 7 9 9 12 13 17 17 17 16 16 16 14 18 20 20 21 21 17 17 15 12 11 12 7 3 3 3 5 22 26 25
5 6 6 7 6 8 12 13 9 5 6 9 9 10 9 11 18 24 16 17 17 16 18 28 30 29 32 33 29 11 11 10 10 11 8 4 4 4 4 4 9 18 18
6 5 7 7 10 8 11 13 11 4 6 7 9 9 17 16 22 23 15 15 15 17 20 20 18 19 22 22 30 15 11 10 8 8 10 3 4 5 4 3 5 7 7
Wind_Direction
31 29 24 12 13 11 15 3 352 355 353 341 339 328 308 278 245 260 255 260 261 251 233 234 230 215 218 209 219 217 216 219 223 227 233 239 241 241 240 241 236 225 224
36 48 41 27 22 19 2 355 352 346 346 331 332 333 318 314 293 250 260 255 238 235 224 227 230 215 213 213 213 206 208 211 213 213 225 231 233 235 238 241 243 238 231
48 47 38 24 17 15 9 2 353 339 351 352 331 324 326 328 328 313 282 263 275 258 245 241 244 259 257 241 229 213 200 207 207 208 214 219 223 222 240 231 236 245 248
41 42 37 28 9 23 19 11 0 350 358 353 329 317 315 334 325 318 323 312 346 45 44 176 77 59 22 300 253 231 229 214 204 207 210 217 223 226 221 239 234 233 226
44 45 35 19 19 27 28 11 0 353 354 339 320 305 302 308 301 327 337 348 269 125 135 148 143 133 129 285 272 243 222 219 221 211 215 220 221 228 225 226 234 234 235
37 41 33 24 25 28 24 14 358 355 3 334 308 298 289 282 354 40 6 15 5 25 161 181 171 198 210 221 240 241 227 220 222 227 217 221 222 221 228 225 226 226 232
40 38 34 30 21 31 24 19 351 360 359 353 323 322 305 279 68 29 40 12 22 11 305 310 299 307 283 265 243 245 231 223 218 226 229 220 219 219 217 223 229 228 224
38 43 36 33 30 29 28 26 21 355 346 10 343 302 346 339 15 341 45 36 3 354 328 315 312 300 299 291 271 259 239 227 221 217 222 222 219 217 215 216 219 230 226
45 44 41 38 34 32 30 29 23 25 6 341 25 10 344 332 337 325 24 27 27 354 344 346 335 313 298 273 268 265 257 243 231 223 217 219 219 219 216 212 215 219 223
49 47 45 44 41 39 38 34 33 32 30 26 347 9 353 344 330 319 354 336 0 338 333 320 306 301 311 295 268 257 250 245 238 233 225 217 218 224 220 216 211 215 217
35 47 46 47 43 41 38 36 30 30 33 31 17 333 339 328 59 319 306 326 323 326 304 318 314 300 284 284 290 291 264 254 243 236 232 223 212 224 225 221 213 212 215
23 32 41 45 49 46 38 31 25 25 18 23 8 7 353 352 348 337 308 317 310 308 321 299 294 298 301 294 296 301 296 268 243 239 238 223 213 218 223 221 219 218 213
359 21 41 38 31 39 39 35 34 25 10 8 358 338 330 346 327 312 307 308 308 310 303 304 287 312 308 315 310 312 315 304 273 247 240 224 214 213 217 226 220 220 215
286 11 41 37 33 29 28 41 47 20 10 350 334 328 282 304 334 320 311 314 315 310 295 290 311 299 336 329 318 314 313 308 311 280 237 227 216 206 206 215 223 224 214
3 33 37 29 23 13 10 34 24 18 5 341 324 313 321 321 326 310 296 292 300 311 312 311 300 326 306 302 300 302 302 297 298 297 281 236 218 206 202 207 211 218 212
22 41 45 34 25 15 12 30 351 327 351 324 326 323 310 322 319 306 296 289 281 268 278 298 298 300 300 297 295 296 297 294 292 290 290 263 221 209 202 203 206 207 201
25 35 57 30 23 18 11 7 342 333 342 319 312 321 309 321 320 311 300 286 280 277 274 288 295 301 299 296 295 290 286 285 283 283 282 277 238 222 208 206 203 200 193
28 39 51 23 357 353 332 338 335 332 328 321 314 305 297 311 318 301 286 284 281 279 277 283 287 299 291 290 291 290 289 283 287 282 273 268 246 223 223 207 202 200 174
29 33 40 357 344 336 332 321 314 316 310 301 299 299 295 303 312 302 293 288 294 295 289 290 290 288 289 293 285 274 279 281 274 277 270 259 240 225 219 210 195 179 162
38 23 14 359 357 329 324 312 309 306 304 313 299 296 287 305 302 301 309 310 307 303 300 293 291 292 294 291 277 279 273 266 280 274 273 253 229 221 216 207 178 165 169
7 347 350 350 335 309 291 323 313 309 307 308 305 298 297 302 314 309 311 312 311 307 302 298 295 296 293 293 279 274 269 273 271 270 269 255 229 213 206 200 187 174 171
316 326 316 300 307 285 299 320 341 324 316 309 304 304 294 305 301 311 310 312 312 311 303 299 294 293 292 292 282 266 260 261 278 252 249 246 208 202 183 183 185 175 174
282 282 284 280 288 292 298 303 322 315 301 288 284 292 302 305 311 301 303 312 306 301 299 298 293 289 289 289 286 269 247 242 253 260 260 227 192 207 184 185 176 169 171
267 269 275 268 277 286 298 297 302 300 290 285 281 288 289 297 298 310 311 308 302 299 298 296 292 291 288 287 277 258 244 245 255 278 242 227 164 166 147 160 173 167 172
268 255 254 276 262 281 290 292 301 292 297 299 300 299 298 302 302 312 318 310 305 302 305 304 298 301 297 293 287 243 229 227 245 252 255 157 173 118 155 149 170 169 170
266 280 280 250 253 257 282 291 302 280 294 301 299 294 301 306 314 317 320 314 308 312 314 310 309 308 305 301 304 230 214 219 228 259 209 130 140 138 141 139 141 177 171